Yeovilton, United Kingdom

2:22 PM GMT on March 23, 2017 (GMT +0000)
Yeovil Radar Navy

Weather History for EGDY - December, 2013

Change the Weather History Date:

Tuesday, December 31, 2013

  Actual Average Record
Temperature  
Mean Temperature 45 °F -  
Max Temperature 51 °F 45 °F 55 °F (2006)
Min Temperature 39 °F 34 °F 19 °F (2001)
Degree Days  
Heating Degree Days 20    
Moisture  
Dew Point 42 °F    
Average Humidity 82    
Maximum Humidity 93    
Minimum Humidity 67    
Precipitation  
Precipitation 0.12 in - - ()
Sea Level Pressure  
Sea Level Pressure 29.57 in    
Wind  
Wind Speed 12 mph ()    
Max Wind Speed 22 mph    
Max Gust Speed 29 mph    
Visibility 8.6 miles    
Events Rain    
Averages and records for this station are not official NWS values.
T = Trace of Precipitation, MM = Missing Value Source: Averaged Metar Reports

Daily Weather History Graph

Daily Weather History Graph

Search for Another Location

Airport or City:

Trip Planner

Search our weather history database for the weather conditions in past years. The results will help you decide how hot, cold, wet, or windy it might be!

Date:

Astronomy

Dec. 31, 2013 Rise Set
Actual Time 8:13 AM GMT 4:13 PM GMT
Civil Twilight 7:34 AM GMT 4:53 PM GMT
Nautical Twilight 6:51 AM GMT 5:35 PM GMT
Astronomical Twilight 6:11 AM GMT 6:15 PM GMT
Moon 6:46 AM GMT (12/31) 3:39 PM GMT (12/31)
Length of Visible Light 9h 18m
Length of Day
7h 59m
Waning Crescent, 1% of the Moon is Illuminated
Dec 31
Waning Crescent
Jan 1
New
Jan 8
First Quarter
Jan 16
Full
Jan 24
Last Quarter

Hourly Weather History & Observations

Time (GMT) Temp. Windchill Dew Point Humidity Pressure Visibility Wind Dir Wind Speed Gust Speed Precip Events Conditions
12:00 AM 48 °F - 44 °F 81% 29.78 in 11 mi South 11.5 mph - -   Scattered Clouds
12:50 AM 48.2 °F - 44.6 °F 87% 29.74 in 6.2 mi SSE 13.8 mph - N/A   Scattered Clouds
1:00 AM 49 °F - 45 °F 79% 29.75 in 12 mi SSE 13.8 mph - -   Mostly Cloudy
1:50 AM 50.0 °F - 44.6 °F 82% 29.68 in 6.2 mi South 16.1 mph - N/A   Scattered Clouds
2:00 AM 49 °F - 45 °F 81% 29.71 in 9 mi South 16.1 mph - -   Partly Cloudy
2:50 AM 50.0 °F - 44.6 °F 82% 29.65 in 6.2 mi South 17.3 mph 28.8 mph N/A   Mostly Cloudy
3:00 AM 50 °F - 45 °F 78% 29.68 in 12 mi South 17.3 mph - - Rain Rain
3:50 AM 50.0 °F - 46.4 °F 87% 29.62 in 6.2 mi South 15.0 mph - N/A   Scattered Clouds
4:00 AM 49 °F - 46 °F 83% 29.63 in 10 mi South 15.0 mph - -   Mostly Cloudy
4:50 AM 50.0 °F - 44.6 °F 82% 29.59 in 6.2 mi South 18.4 mph - N/A   Mostly Cloudy
5:00 AM 50 °F - 45 °F 77% 29.59 in 17 mi South 18.4 mph - -   Scattered Clouds
5:50 AM 50.0 °F - 46.4 °F 87% 29.56 in 6.2 mi South 18.4 mph - N/A   Mostly Cloudy
6:00 AM 51 °F - 46 °F 77% 29.56 in 17 mi South 18.4 mph - - Rain Rain
6:50 AM 51.8 °F - 46.4 °F 82% 29.53 in 6.2 mi South 17.3 mph - N/A   Scattered Clouds
7:00 AM 51 °F - 46 °F 77% 29.54 in 14 mi South 17.3 mph - - Rain Rain
7:50 AM 51.8 °F - 46.4 °F 82% 29.47 in 6.2 mi South 21.9 mph - N/A   Mostly Cloudy
8:00 AM 51 °F - 46 °F 75% 29.50 in 12 mi South 21.9 mph - -   Scattered Clouds
8:50 AM 46.4 °F 39.8 °F 42.8 °F 87% 29.53 in 6.2 mi WSW 16.1 mph - N/A Rain Rain Showers
9:00 AM 46 °F - 43 °F 85% 29.55 in 6 mi WSW 16.1 mph - - Rain Rain Showers
9:50 AM 44.6 °F 40.7 °F 41.0 °F 87% 29.53 in 6.2 mi SSW 6.9 mph - N/A Rain Light Rain
10:00 AM 44 °F - 42 °F 88% 29.55 in 25 mi SSW 6.9 mph - - Rain Light Rain
10:50 AM 44.6 °F 40.2 °F 42.8 °F 93% 29.53 in 6.2 mi South 8.1 mph - N/A Rain Light Rain
11:00 AM 45 °F - 42 °F 86% 29.56 in 25 mi South 8.1 mph - - Rain Light Rain
11:50 AM 44.6 °F 41.4 °F 41.0 °F 87% 29.53 in 6.2 mi SSW 5.8 mph - N/A   Mostly Cloudy
12:00 PM 45 °F - 41 °F 82% 29.55 in 28 mi SSW 5.8 mph - - Rain Rain
12:50 PM 44.6 °F 42.2 °F 41.0 °F 87% 29.53 in 6.2 mi South 4.6 mph - N/A   Partly Cloudy
1:00 PM 45 °F - 41 °F 82% 29.55 in 16 mi South 4.6 mph - -   Scattered Clouds
1:50 PM 46.4 °F 42.4 °F 41.0 °F 81% 29.53 in 6.2 mi SSW 8.1 mph - N/A   Unknown
2:00 PM 46 °F - 40 °F 74% 29.56 in 12 mi SSW 8.1 mph - -  
2:50 PM 48.2 °F - 39.2 °F 71% 29.53 in 6.2 mi SSW 10.4 mph - N/A   Unknown
3:00 PM 47 °F - 40 °F 67% 29.55 in 11 mi SSW 10.4 mph - -  
3:50 PM 44.6 °F 39.2 °F 39.2 °F 81% 29.53 in 6.2 mi South 10.4 mph - N/A   Unknown
4:00 PM 45 °F - 39 °F 71% 29.56 in 7 mi South 10.4 mph - -  
4:50 PM 42.8 °F 37.5 °F 37.4 °F 81% 29.53 in 6.2 mi South 9.2 mph - N/A   Unknown
5:00 PM 43 °F - 38 °F 75% 29.56 in 14 mi South 9.2 mph - -  
5:50 PM 41.0 °F 36.4 °F 37.4 °F 87% 29.56 in 6.2 mi SE 6.9 mph - N/A   Scattered Clouds
6:00 PM 42 °F - 37 °F 75% 29.57 in 12 mi SE 6.9 mph - -   Scattered Clouds
6:50 PM 46.4 °F 40.7 °F 41.0 °F 81% 29.53 in 6.2 mi South 12.7 mph - N/A   Partly Cloudy
7:00 PM 46 °F - 40 °F 74% 29.55 in 12 mi South 12.7 mph - -   Scattered Clouds
7:50 PM 48.2 °F - 41.0 °F 76% 29.53 in 3.7 mi South 13.8 mph - N/A Rain Rain Showers
8:00 PM 47 °F - 41 °F 73% 29.54 in 4 mi South 13.8 mph - - Rain Rain Showers
8:50 PM 44.6 °F 38.4 °F 41.0 °F 87% 29.53 in 3.7 mi SW 12.7 mph - N/A Rain Rain Showers
9:00 PM 45 °F - 42 °F 84% 29.56 in 4 mi SW 12.7 mph - - Rain Rain Showers
9:50 PM 42.8 °F 35.8 °F 41.0 °F 93% 29.53 in 6.2 mi South 13.8 mph - N/A   Partly Cloudy
10:00 PM 43 °F - 40 °F 87% 29.54 in 18 mi South 13.8 mph - - Rain Rain
10:50 PM 46.4 °F 40.7 °F 42.8 °F 87% 29.53 in 6.2 mi SSW 12.7 mph - N/A Rain Light Rain Showers
11:00 PM 46 °F - 43 °F 86% 29.54 in 12 mi SSW 12.7 mph - - Rain Light Rain Showers
11:50 PM 44.6 °F 38.1 °F 41.0 °F 87% 29.53 in 6.2 mi SSW 13.8 mph - N/A   Scattered Clouds